owner,sensor,date,latitude,longitude,vertical_datum,mass_concentration_of_oxygen_in_sea_water,qcFlag 
DISL,ioos:station:DISL:DISL:1,2014-05-01T00:00:00Z,30.2513,-88.0778,2.112,7.74,1111122 
DISL,ioos:station:DISL:DISL:1,2014-05-01T00:30:00Z,30.2513,-88.0778,2.12,8.15,1111122 
DISL,ioos:station:DISL:DISL:1,2014-05-01T01:00:00Z,30.2513,-88.0778,2.098,8.16,1111122 
DISL,ioos:station:DISL:DISL:1,2014-05-01T01:30:00Z,30.2513,-88.0778,2.056,8.26,1111122 
DISL,ioos:station:DISL:DISL:1,2014-05-01T02:00:00Z,30.2513,-88.0778,2.076,8.32,1111122 
DISL,ioos:station:DISL:DISL:1,2014-05-01T02:30:00Z,30.2513,-88.0778,2.063,8.03,1111122 
DISL,ioos:station:DISL:DISL:1,2014-05-01T03:00:00Z,30.2513,-88.0778,2.058,8.25,1111122 
DISL,ioos:station:DISL:DISL:1,2014-05-01T03:30:00Z,30.2513,-88.0778,2.063,7.97,1111122 
DISL,ioos:station:DISL:DISL:1,2014-05-01T04:00:00Z,30.2513,-88.0778,2.051,7.93,1111122 
DISL,ioos:station:DISL:DISL:1,2014-05-01T04:30:00Z,30.2513,-88.0778,2.014,8.15,1111122 
DISL,ioos:station:DISL:DISL:1,2014-05-01T05:00:00Z,30.2513,-88.0778,2.077,8.19,1111122 
DISL,ioos:station:DISL:DISL:1,2014-05-01T05:30:00Z,30.2513,-88.0778,2.058,8.09,1111122 
DISL,ioos:station:DISL:DISL:1,2014-05-01T06:00:00Z,30.2513,-88.0778,2.054,8.11,1111122 
DISL,ioos:station:DISL:DISL:1,2014-05-01T06:30:00Z,30.2513,-88.0778,2.027,8.1,1111122 
DISL,ioos:station:DISL:DISL:1,2014-05-01T07:00:00Z,30.2513,-88.0778,2.02,8.2,1111122 
DISL,ioos:station:DISL:DISL:1,2014-05-01T07:30:00Z,30.2513,-88.0778,2.039,8.21,1111122 
DISL,ioos:station:DISL:DISL:1,2014-05-01T08:00:00Z,30.2513,-88.0778,2.055,8.34,1111122 
DISL,ioos:station:DISL:DISL:1,2014-05-01T08:30:00Z,30.2513,-88.0778,2.057,8.15,1111122 
DISL,ioos:station:DISL:DISL:1,2014-05-01T09:00:00Z,30.2513,-88.0778,2.098,8.28,1111122 
DISL,ioos:station:DISL:DISL:1,2014-05-01T09:30:00Z,30.2513,-88.0778,2.112,8.26,1111122 
DISL,ioos:station:DISL:DISL:1,2014-05-01T10:00:00Z,30.2513,-88.0778,2.118,8.29,1111122 
DISL,ioos:station:DISL:DISL:1,2014-05-01T10:30:00Z,30.2513,-88.0778,2.106,8.26,1111122 
DISL,ioos:station:DISL:DISL:1,2014-05-01T11:00:00Z,30.2513,-88.0778,2.074,8.3,1111122 
DISL,ioos:station:DISL:DISL:1,2014-05-01T11:30:00Z,30.2513,-88.0778,2.144,8.3,1111122 
DISL,ioos:station:DISL:DISL:1,2014-05-01T12:00:00Z,30.2513,-88.0778,2.159,8.53,1111122 
DISL,ioos:station:DISL:DISL:1,2014-05-01T12:30:00Z,30.2513,-88.0778,2.199,8.6,1111122 
DISL,ioos:station:DISL:DISL:1,2014-05-01T13:00:00Z,30.2513,-88.0778,2.194,8.53,1111122 
DISL,ioos:station:DISL:DISL:1,2014-05-01T13:30:00Z,30.2513,-88.0778,2.214,8.36,1111122 
DISL,ioos:station:DISL:DISL:1,2014-05-01T14:00:00Z,30.2513,-88.0778,2.245,8.4,1111122 
DISL,ioos:station:DISL:DISL:1,2014-05-01T14:30:00Z,30.2513,-88.0778,2.227,8.35,1111122 
DISL,ioos:station:DISL:DISL:1,2014-05-01T15:00:00Z,30.2513,-88.0778,2.285,8.32,1111122 
DISL,ioos:station:DISL:DISL:1,2014-05-01T15:30:00Z,30.2513,-88.0778,2.286,8.26,1111122 
DISL,ioos:station:DISL:DISL:1,2014-05-01T16:00:00Z,30.2513,-88.0778,2.294,8.4,1111122 
DISL,ioos:station:DISL:DISL:1,2014-05-01T16:30:00Z,30.2513,-88.0778,2.303,8.52,1111122 
DISL,ioos:station:DISL:DISL:1,2014-05-01T17:00:00Z,30.2513,-88.0778,2.333,8.48,1111122 
DISL,ioos:station:DISL:DISL:1,2014-05-01T17:30:00Z,30.2513,-88.0778,2.314,7.46,1111122 
DISL,ioos:station:DISL:DISL:1,2014-05-01T18:00:00Z,30.2513,-88.0778,2.304,6.94,1111122 
DISL,ioos:station:DISL:DISL:1,2014-05-01T18:30:00Z,30.2513,-88.0778,2.288,8.54,1111122 
DISL,ioos:station:DISL:DISL:1,2014-05-01T19:00:00Z,30.2513,-88.0778,2.282,8.86,1111122 
DISL,ioos:station:DISL:DISL:1,2014-05-01T19:30:00Z,30.2513,-88.0778,2.287,9.0,1111122 
DISL,ioos:station:DISL:DISL:1,2014-05-01T20:00:00Z,30.2513,-88.0778,2.291,9.11,1111122 
DISL,ioos:station:DISL:DISL:1,2014-05-01T20:30:00Z,30.2513,-88.0778,2.237,9.19,1111122 
DISL,ioos:station:DISL:DISL:1,2014-05-01T21:00:00Z,30.2513,-88.0778,2.214,9.29,1111122 
DISL,ioos:station:DISL:DISL:1,2014-05-01T21:30:00Z,30.2513,-88.0778,2.185,9.31,1111122 
DISL,ioos:station:DISL:DISL:1,2014-05-01T22:00:00Z,30.2513,-88.0778,2.175,9.46,1111122 
DISL,ioos:station:DISL:DISL:1,2014-05-01T22:30:00Z,30.2513,-88.0778,2.144,9.37,1111122 
DISL,ioos:station:DISL:DISL:1,2014-05-01T23:00:00Z,30.2513,-88.0778,2.094,9.26,1111122 
DISL,ioos:station:DISL:DISL:1,2014-05-01T23:30:00Z,30.2513,-88.0778,2.043,8.85,1111122 
DISL,ioos:station:DISL:DISL:1,2014-05-02T00:00:00Z,30.2513,-88.0778,2.026,8.51,1111122 
DISL,ioos:station:DISL:DISL:1,2014-05-02T00:30:00Z,30.2513,-88.0778,2.023,8.4,1111122 
DISL,ioos:station:DISL:DISL:1,2014-05-02T01:00:00Z,30.2513,-88.0778,1.993,8.34,1111122 
DISL,ioos:station:DISL:DISL:1,2014-05-02T01:30:00Z,30.2513,-88.0778,1.966,8.35,1111122 
DISL,ioos:station:DISL:DISL:1,2014-05-02T02:00:00Z,30.2513,-88.0778,1.957,8.27,1111122 
DISL,ioos:station:DISL:DISL:1,2014-05-02T02:30:00Z,30.2513,-88.0778,1.933,8.21,1111122 
DISL,ioos:station:DISL:DISL:1,2014-05-02T03:00:00Z,30.2513,-88.0778,1.935,8.26,1111122 
DISL,ioos:station:DISL:DISL:1,2014-05-02T03:30:00Z,30.2513,-88.0778,1.932,8.21,1111122 
DISL,ioos:station:DISL:DISL:1,2014-05-02T04:00:00Z,30.2513,-88.0778,1.893,8.21,1111122 
DISL,ioos:station:DISL:DISL:1,2014-05-02T04:30:00Z,30.2513,-88.0778,1.893,8.19,1111122 
DISL,ioos:station:DISL:DISL:1,2014-05-02T05:00:00Z,30.2513,-88.0778,1.906,8.24,1111122 
DISL,ioos:station:DISL:DISL:1,2014-05-02T05:30:00Z,30.2513,-88.0778,1.938,8.2,1111122 
DISL,ioos:station:DISL:DISL:1,2014-05-02T06:00:00Z,30.2513,-88.0778,1.924,8.09,1111122 
DISL,ioos:station:DISL:DISL:1,2014-05-02T06:30:00Z,30.2513,-88.0778,1.91,8.07,1111122 
DISL,ioos:station:DISL:DISL:1,2014-05-02T07:00:00Z,30.2513,-88.0778,1.934,8.02,1111122 
DISL,ioos:station:DISL:DISL:1,2014-05-02T07:30:00Z,30.2513,-88.0778,1.97,7.99,1111122 
DISL,ioos:station:DISL:DISL:1,2014-05-02T08:00:00Z,30.2513,-88.0778,1.994,7.95,1111122 
DISL,ioos:station:DISL:DISL:1,2014-05-02T08:30:00Z,30.2513,-88.0778,2.0,7.74,1111122 
DISL,ioos:station:DISL:DISL:1,2014-05-02T09:00:00Z,30.2513,-88.0778,2.008,7.77,1111122 
DISL,ioos:station:DISL:DISL:1,2014-05-02T09:30:00Z,30.2513,-88.0778,2.035,7.68,1111122 
DISL,ioos:station:DISL:DISL:1,2014-05-02T10:00:00Z,30.2513,-88.0778,2.045,7.94,1111122 
DISL,ioos:station:DISL:DISL:1,2014-05-02T10:30:00Z,30.2513,-88.0778,2.1,7.86,1111122 
DISL,ioos:station:DISL:DISL:1,2014-05-02T11:00:00Z,30.2513,-88.0778,2.107,7.85,1111122 
DISL,ioos:station:DISL:DISL:1,2014-05-02T11:30:00Z,30.2513,-88.0778,2.134,7.66,1111122 
DISL,ioos:station:DISL:DISL:1,2014-05-02T12:00:00Z,30.2513,-88.0778,2.142,6.39,1111122 
DISL,ioos:station:DISL:DISL:1,2014-05-02T12:30:00Z,30.2513,-88.0778,2.138,5.65,1111122 
DISL,ioos:station:DISL:DISL:1,2014-05-02T13:00:00Z,30.2513,-88.0778,2.185,5.45,1111122 
DISL,ioos:station:DISL:DISL:1,2014-05-02T13:30:00Z,30.2513,-88.0778,2.218,5.43,1111122 
DISL,ioos:station:DISL:DISL:1,2014-05-02T14:00:00Z,30.2513,-88.0778,2.242,5.39,1111122 
DISL,ioos:station:DISL:DISL:1,2014-05-02T14:30:00Z,30.2513,-88.0778,2.263,5.54,1111122 
DISL,ioos:station:DISL:DISL:1,2014-05-02T15:00:00Z,30.2513,-88.0778,2.278,5.36,1111122 
DISL,ioos:station:DISL:DISL:1,2014-05-02T15:30:00Z,30.2513,-88.0778,2.308,5.32,1111122 
DISL,ioos:station:DISL:DISL:1,2014-05-02T16:00:00Z,30.2513,-88.0778,2.318,5.69,1111122 
DISL,ioos:station:DISL:DISL:1,2014-05-02T16:30:00Z,30.2513,-88.0778,2.324,5.85,1111122 
DISL,ioos:station:DISL:DISL:1,2014-05-02T17:00:00Z,30.2513,-88.0778,2.337,6.32,1111122 
DISL,ioos:station:DISL:DISL:1,2014-05-02T17:30:00Z,30.2513,-88.0778,2.324,7.18,1111122 
DISL,ioos:station:DISL:DISL:1,2014-05-02T18:00:00Z,30.2513,-88.0778,2.356,8.37,1111122 
DISL,ioos:station:DISL:DISL:1,2014-05-02T18:30:00Z,30.2513,-88.0778,2.353,9.29,1111122 
DISL,ioos:station:DISL:DISL:1,2014-05-02T19:00:00Z,30.2513,-88.0778,2.35,9.46,1111122 
DISL,ioos:station:DISL:DISL:1,2014-05-02T19:30:00Z,30.2513,-88.0778,2.328,9.42,1111122 
DISL,ioos:station:DISL:DISL:1,2014-05-02T20:00:00Z,30.2513,-88.0778,2.294,9.38,1111122 
DISL,ioos:station:DISL:DISL:1,2014-05-02T20:30:00Z,30.2513,-88.0778,2.272,9.71,1111122 
DISL,ioos:station:DISL:DISL:1,2014-05-02T21:00:00Z,30.2513,-88.0778,2.25,9.85,1111122 
DISL,ioos:station:DISL:DISL:1,2014-05-02T21:30:00Z,30.2513,-88.0778,2.217,10.11,1111122 
DISL,ioos:station:DISL:DISL:1,2014-05-02T22:00:00Z,30.2513,-88.0778,2.204,10.42,1111122 
DISL,ioos:station:DISL:DISL:1,2014-05-02T22:30:00Z,30.2513,-88.0778,2.153,10.42,1111122 
DISL,ioos:station:DISL:DISL:1,2014-05-02T23:00:00Z,30.2513,-88.0778,2.137,10.1,1111122 
DISL,ioos:station:DISL:DISL:1,2014-05-02T23:30:00Z,30.2513,-88.0778,2.085,10.22,1111122 
DISL,ioos:station:DISL:DISL:1,2014-05-03T00:00:00Z,30.2513,-88.0778,2.07,9.22,1111122 
DISL,ioos:station:DISL:DISL:1,2014-05-03T00:30:00Z,30.2513,-88.0778,2.075,8.78,1111122 
DISL,ioos:station:DISL:DISL:1,2014-05-03T01:00:00Z,30.2513,-88.0778,2.012,8.35,1111122 
DISL,ioos:station:DISL:DISL:1,2014-05-03T01:30:00Z,30.2513,-88.0778,2.01,8.34,1111122 
DISL,ioos:station:DISL:DISL:1,2014-05-03T02:00:00Z,30.2513,-88.0778,1.978,8.36,1111122 
DISL,ioos:station:DISL:DISL:1,2014-05-03T02:30:00Z,30.2513,-88.0778,1.995,8.42,1111122 
DISL,ioos:station:DISL:DISL:1,2014-05-03T03:00:00Z,30.2513,-88.0778,1.967,8.24,1111122 
DISL,ioos:station:DISL:DISL:1,2014-05-03T03:30:00Z,30.2513,-88.0778,1.974,8.4,1111122 
DISL,ioos:station:DISL:DISL:1,2014-05-03T04:00:00Z,30.2513,-88.0778,1.959,8.36,1111122 
DISL,ioos:station:DISL:DISL:1,2014-05-03T04:30:00Z,30.2513,-88.0778,1.955,8.3,1111122 
DISL,ioos:station:DISL:DISL:1,2014-05-03T05:00:00Z,30.2513,-88.0778,1.948,8.3,1111122 
DISL,ioos:station:DISL:DISL:1,2014-05-03T05:30:00Z,30.2513,-88.0778,1.996,8.23,1111122 
DISL,ioos:station:DISL:DISL:1,2014-05-03T06:00:00Z,30.2513,-88.0778,1.965,8.16,1111122 
DISL,ioos:station:DISL:DISL:1,2014-05-03T06:30:00Z,30.2513,-88.0778,1.957,8.04,1111122 
DISL,ioos:station:DISL:DISL:1,2014-05-03T07:00:00Z,30.2513,-88.0778,1.974,7.85,1111122 
DISL,ioos:station:DISL:DISL:1,2014-05-03T07:30:00Z,30.2513,-88.0778,1.978,8.06,1111122 
DISL,ioos:station:DISL:DISL:1,2014-05-03T08:00:00Z,30.2513,-88.0778,1.994,7.8,1111122 
DISL,ioos:station:DISL:DISL:1,2014-05-03T08:30:00Z,30.2513,-88.0778,2.027,7.84,1111122 
DISL,ioos:station:DISL:DISL:1,2014-05-03T09:00:00Z,30.2513,-88.0778,2.044,7.85,1111122 
DISL,ioos:station:DISL:DISL:1,2014-05-03T09:30:00Z,30.2513,-88.0778,2.043,7.96,1111122 
DISL,ioos:station:DISL:DISL:1,2014-05-03T10:00:00Z,30.2513,-88.0778,2.067,8.06,1111122 
DISL,ioos:station:DISL:DISL:1,2014-05-03T10:30:00Z,30.2513,-88.0778,2.036,7.94,1111122 
DISL,ioos:station:DISL:DISL:1,2014-05-03T11:00:00Z,30.2513,-88.0778,2.119,7.8,1111122 
DISL,ioos:station:DISL:DISL:1,2014-05-03T11:30:00Z,30.2513,-88.0778,2.126,7.89,1111122 
DISL,ioos:station:DISL:DISL:1,2014-05-03T12:00:00Z,30.2513,-88.0778,2.147,6.83,1111122 
DISL,ioos:station:DISL:DISL:1,2014-05-03T12:30:00Z,30.2513,-88.0778,2.161,5.97,1111122 
DISL,ioos:station:DISL:DISL:1,2014-05-03T13:00:00Z,30.2513,-88.0778,2.186,5.73,1111122 
DISL,ioos:station:DISL:DISL:1,2014-05-03T13:30:00Z,30.2513,-88.0778,2.194,5.87,1111122 
DISL,ioos:station:DISL:DISL:1,2014-05-03T14:00:00Z,30.2513,-88.0778,2.241,5.73,1111122 
DISL,ioos:station:DISL:DISL:1,2014-05-03T14:30:00Z,30.2513,-88.0778,2.256,5.96,1111122 
DISL,ioos:station:DISL:DISL:1,2014-05-03T15:00:00Z,30.2513,-88.0778,2.269,6.18,1111122 
DISL,ioos:station:DISL:DISL:1,2014-05-03T15:30:00Z,30.2513,-88.0778,2.293,7.4,1111122 
DISL,ioos:station:DISL:DISL:1,2014-05-03T16:00:00Z,30.2513,-88.0778,2.296,7.54,1111122 
DISL,ioos:station:DISL:DISL:1,2014-05-03T16:30:00Z,30.2513,-88.0778,2.297,7.79,1111122 
DISL,ioos:station:DISL:DISL:1,2014-05-03T17:00:00Z,30.2513,-88.0778,2.313,8.39,1111122 
DISL,ioos:station:DISL:DISL:1,2014-05-03T17:30:00Z,30.2513,-88.0778,2.33,9.76,1111122 
DISL,ioos:station:DISL:DISL:1,2014-05-03T18:00:00Z,30.2513,-88.0778,2.308,9.71,1111122 
DISL,ioos:station:DISL:DISL:1,2014-05-03T18:30:00Z,30.2513,-88.0778,2.323,10.03,1111122 
DISL,ioos:station:DISL:DISL:1,2014-05-03T19:00:00Z,30.2513,-88.0778,2.296,10.37,1111122 
DISL,ioos:station:DISL:DISL:1,2014-05-03T19:30:00Z,30.2513,-88.0778,2.285,10.51,1111122 
DISL,ioos:station:DISL:DISL:1,2014-05-03T20:00:00Z,30.2513,-88.0778,2.279,10.78,1111122 
DISL,ioos:station:DISL:DISL:1,2014-05-03T20:30:00Z,30.2513,-88.0778,2.258,10.88,1111122 
DISL,ioos:station:DISL:DISL:1,2014-05-03T21:00:00Z,30.2513,-88.0778,2.23,10.84,1111122 
DISL,ioos:station:DISL:DISL:1,2014-05-03T21:30:00Z,30.2513,-88.0778,2.199,10.98,1111122 
DISL,ioos:station:DISL:DISL:1,2014-05-03T22:00:00Z,30.2513,-88.0778,2.171,11.03,1111122 
DISL,ioos:station:DISL:DISL:1,2014-05-03T22:30:00Z,30.2513,-88.0778,2.149,10.98,1111122 
DISL,ioos:station:DISL:DISL:1,2014-05-03T23:00:00Z,30.2513,-88.0778,2.115,10.9,1111122 
DISL,ioos:station:DISL:DISL:1,2014-05-03T23:30:00Z,30.2513,-88.0778,2.098,10.81,1111122 
DISL,ioos:station:DISL:DISL:1,2014-05-04T00:00:00Z,30.2513,-88.0778,2.074,10.67,1111122 
DISL,ioos:station:DISL:DISL:1,2014-05-04T00:30:00Z,30.2513,-88.0778,2.047,10.56,1111122 
DISL,ioos:station:DISL:DISL:1,2014-05-04T01:00:00Z,30.2513,-88.0778,2.027,9.84,1111122 
DISL,ioos:station:DISL:DISL:1,2014-05-04T01:30:00Z,30.2513,-88.0778,2.007,9.71,1111122 
DISL,ioos:station:DISL:DISL:1,2014-05-04T02:00:00Z,30.2513,-88.0778,1.975,9.2,1111122 
DISL,ioos:station:DISL:DISL:1,2014-05-04T02:30:00Z,30.2513,-88.0778,1.952,9.1,1111122 
DISL,ioos:station:DISL:DISL:1,2014-05-04T03:00:00Z,30.2513,-88.0778,1.924,9.07,1111122 
DISL,ioos:station:DISL:DISL:1,2014-05-04T03:30:00Z,30.2513,-88.0778,1.913,9.04,1111122 
DISL,ioos:station:DISL:DISL:1,2014-05-04T04:00:00Z,30.2513,-88.0778,1.902,8.78,1111122 
DISL,ioos:station:DISL:DISL:1,2014-05-04T04:30:00Z,30.2513,-88.0778,1.878,8.32,1111122 
DISL,ioos:station:DISL:DISL:1,2014-05-04T05:00:00Z,30.2513,-88.0778,1.86,7.9,1111122 
DISL,ioos:station:DISL:DISL:1,2014-05-04T05:30:00Z,30.2513,-88.0778,1.868,8.86,1111122 
DISL,ioos:station:DISL:DISL:1,2014-05-04T06:00:00Z,30.2513,-88.0778,1.867,8.92,1111122 
DISL,ioos:station:DISL:DISL:1,2014-05-04T06:30:00Z,30.2513,-88.0778,1.862,8.9,1111122 
DISL,ioos:station:DISL:DISL:1,2014-05-04T07:00:00Z,30.2513,-88.0778,1.865,8.94,1111122 
DISL,ioos:station:DISL:DISL:1,2014-05-04T07:30:00Z,30.2513,-88.0778,1.876,8.86,1111122 
DISL,ioos:station:DISL:DISL:1,2014-05-04T08:00:00Z,30.2513,-88.0778,1.886,8.8,1111122 
DISL,ioos:station:DISL:DISL:1,2014-05-04T08:30:00Z,30.2513,-88.0778,1.894,8.7,1111122 
DISL,ioos:station:DISL:DISL:1,2014-05-04T09:00:00Z,30.2513,-88.0778,1.895,8.59,1111122 
DISL,ioos:station:DISL:DISL:1,2014-05-04T09:30:00Z,30.2513,-88.0778,1.906,8.23,1111122 
DISL,ioos:station:DISL:DISL:1,2014-05-04T10:00:00Z,30.2513,-88.0778,1.917,8.43,1111122 
DISL,ioos:station:DISL:DISL:1,2014-05-04T10:30:00Z,30.2513,-88.0778,1.943,8.48,1111122 
DISL,ioos:station:DISL:DISL:1,2014-05-04T11:00:00Z,30.2513,-88.0778,1.969,8.29,1111122 
DISL,ioos:station:DISL:DISL:1,2014-05-04T11:30:00Z,30.2513,-88.0778,1.976,8.51,1111122 
DISL,ioos:station:DISL:DISL:1,2014-05-04T12:00:00Z,30.2513,-88.0778,1.995,8.46,1111122 
DISL,ioos:station:DISL:DISL:1,2014-05-04T12:30:00Z,30.2513,-88.0778,2.01,8.51,1111122 
DISL,ioos:station:DISL:DISL:1,2014-05-04T13:00:00Z,30.2513,-88.0778,2.031,8.59,1111122 
DISL,ioos:station:DISL:DISL:1,2014-05-04T13:30:00Z,30.2513,-88.0778,2.052,8.51,1111122 
DISL,ioos:station:DISL:DISL:1,2014-05-04T14:00:00Z,30.2513,-88.0778,2.064,8.62,1111122 
DISL,ioos:station:DISL:DISL:1,2014-05-04T14:30:00Z,30.2513,-88.0778,2.089,8.57,1111122 
DISL,ioos:station:DISL:DISL:1,2014-05-04T15:00:00Z,30.2513,-88.0778,2.118,8.89,1111122 
DISL,ioos:station:DISL:DISL:1,2014-05-04T15:30:00Z,30.2513,-88.0778,2.129,7.8,1111122 
DISL,ioos:station:DISL:DISL:1,2014-05-04T16:00:00Z,30.2513,-88.0778,2.144,7.63,1111122 
DISL,ioos:station:DISL:DISL:1,2014-05-04T16:30:00Z,30.2513,-88.0778,2.151,7.71,1111122 
DISL,ioos:station:DISL:DISL:1,2014-05-04T17:00:00Z,30.2513,-88.0778,2.154,6.98,1111122 
DISL,ioos:station:DISL:DISL:1,2014-05-04T17:30:00Z,30.2513,-88.0778,2.181,8.59,1111122 
DISL,ioos:station:DISL:DISL:1,2014-05-04T18:00:00Z,30.2513,-88.0778,2.185,8.81,1111122 
DISL,ioos:station:DISL:DISL:1,2014-05-04T18:30:00Z,30.2513,-88.0778,2.188,9.9,1111122 
DISL,ioos:station:DISL:DISL:1,2014-05-04T19:00:00Z,30.2513,-88.0778,2.195,10.24,1111122 
DISL,ioos:station:DISL:DISL:1,2014-05-04T19:30:00Z,30.2513,-88.0778,2.179,10.5,1111122 
DISL,ioos:station:DISL:DISL:1,2014-05-04T20:00:00Z,30.2513,-88.0778,2.171,10.6,1111122 
DISL,ioos:station:DISL:DISL:1,2014-05-04T20:30:00Z,30.2513,-88.0778,2.153,10.72,1111122 
DISL,ioos:station:DISL:DISL:1,2014-05-04T21:00:00Z,30.2513,-88.0778,2.124,10.74,1111122 
DISL,ioos:station:DISL:DISL:1,2014-05-04T21:30:00Z,30.2513,-88.0778,2.126,10.92,1111122 
DISL,ioos:station:DISL:DISL:1,2014-05-04T22:00:00Z,30.2513,-88.0778,2.109,10.93,1111122 
DISL,ioos:station:DISL:DISL:1,2014-05-04T22:30:00Z,30.2513,-88.0778,2.096,10.78,1111122 
DISL,ioos:station:DISL:DISL:1,2014-05-04T23:00:00Z,30.2513,-88.0778,2.079,10.61,1111122 
DISL,ioos:station:DISL:DISL:1,2014-05-04T23:30:00Z,30.2513,-88.0778,2.053,10.73,1111122 
DISL,ioos:station:DISL:DISL:1,2014-05-05T00:00:00Z,30.2513,-88.0778,2.0,10.63,1111122 
DISL,ioos:station:DISL:DISL:1,2014-05-05T00:30:00Z,30.2513,-88.0778,2.021,10.48,1111122 
DISL,ioos:station:DISL:DISL:1,2014-05-05T01:00:00Z,30.2513,-88.0778,1.999,9.66,1111122 
DISL,ioos:station:DISL:DISL:1,2014-05-05T01:30:00Z,30.2513,-88.0778,1.966,9.33,1111122 
DISL,ioos:station:DISL:DISL:1,2014-05-05T02:00:00Z,30.2513,-88.0778,1.943,8.97,1111122 
DISL,ioos:station:DISL:DISL:1,2014-05-05T02:30:00Z,30.2513,-88.0778,1.923,8.69,1111122 
DISL,ioos:station:DISL:DISL:1,2014-05-05T03:00:00Z,30.2513,-88.0778,1.9,8.47,1111122 
DISL,ioos:station:DISL:DISL:1,2014-05-05T03:30:00Z,30.2513,-88.0778,1.878,8.34,1111122 
DISL,ioos:station:DISL:DISL:1,2014-05-05T04:00:00Z,30.2513,-88.0778,1.869,8.2,1111122 
DISL,ioos:station:DISL:DISL:1,2014-05-05T04:30:00Z,30.2513,-88.0778,1.854,8.14,1111122 
DISL,ioos:station:DISL:DISL:1,2014-05-05T05:00:00Z,30.2513,-88.0778,1.852,8.11,1111122 
DISL,ioos:station:DISL:DISL:1,2014-05-05T05:30:00Z,30.2513,-88.0778,1.842,8.15,1111122 
DISL,ioos:station:DISL:DISL:1,2014-05-05T06:00:00Z,30.2513,-88.0778,1.843,8.09,1111122 
DISL,ioos:station:DISL:DISL:1,2014-05-05T06:30:00Z,30.2513,-88.0778,1.84,8.17,1111122 
DISL,ioos:station:DISL:DISL:1,2014-05-05T07:00:00Z,30.2513,-88.0778,1.846,8.16,1111122 
DISL,ioos:station:DISL:DISL:1,2014-05-05T07:30:00Z,30.2513,-88.0778,1.845,7.84,1111122 
DISL,ioos:station:DISL:DISL:1,2014-05-05T08:00:00Z,30.2513,-88.0778,1.855,7.77,1111122 
DISL,ioos:station:DISL:DISL:1,2014-05-05T08:30:00Z,30.2513,-88.0778,1.864,8.13,1111122 
DISL,ioos:station:DISL:DISL:1,2014-05-05T09:00:00Z,30.2513,-88.0778,1.864,7.8,1111122 
DISL,ioos:station:DISL:DISL:1,2014-05-05T09:30:00Z,30.2513,-88.0778,1.878,7.52,1111122 
DISL,ioos:station:DISL:DISL:1,2014-05-05T10:00:00Z,30.2513,-88.0778,1.896,7.68,1111122 
DISL,ioos:station:DISL:DISL:1,2014-05-05T10:30:00Z,30.2513,-88.0778,1.916,7.7,1111122 
DISL,ioos:station:DISL:DISL:1,2014-05-05T11:00:00Z,30.2513,-88.0778,1.938,7.97,1111122 
DISL,ioos:station:DISL:DISL:1,2014-05-05T11:30:00Z,30.2513,-88.0778,1.956,7.95,1111122 
DISL,ioos:station:DISL:DISL:1,2014-05-05T12:00:00Z,30.2513,-88.0778,1.972,7.87,1111122 
DISL,ioos:station:DISL:DISL:1,2014-05-05T12:30:00Z,30.2513,-88.0778,1.983,8.28,1111122 
DISL,ioos:station:DISL:DISL:1,2014-05-05T13:00:00Z,30.2513,-88.0778,2.006,8.2,1111122 
DISL,ioos:station:DISL:DISL:1,2014-05-05T13:30:00Z,30.2513,-88.0778,2.036,7.9,1111122 
DISL,ioos:station:DISL:DISL:1,2014-05-05T14:00:00Z,30.2513,-88.0778,2.053,7.98,1111122 
DISL,ioos:station:DISL:DISL:1,2014-05-05T14:30:00Z,30.2513,-88.0778,2.077,7.81,1111122 
DISL,ioos:station:DISL:DISL:1,2014-05-05T15:00:00Z,30.2513,-88.0778,2.096,7.85,1111122 
DISL,ioos:station:DISL:DISL:1,2014-05-05T15:30:00Z,30.2513,-88.0778,2.099,6.97,1111122 
DISL,ioos:station:DISL:DISL:1,2014-05-05T16:00:00Z,30.2513,-88.0778,2.12,6.93,1111122 
DISL,ioos:station:DISL:DISL:1,2014-05-05T16:30:00Z,30.2513,-88.0778,2.14,7.13,1111122 
DISL,ioos:station:DISL:DISL:1,2014-05-05T17:00:00Z,30.2513,-88.0778,2.139,6.27,1111122 
DISL,ioos:station:DISL:DISL:1,2014-05-05T17:30:00Z,30.2513,-88.0778,2.155,6.97,1111122 
DISL,ioos:station:DISL:DISL:1,2014-05-05T18:00:00Z,30.2513,-88.0778,2.167,6.93,1111122 
DISL,ioos:station:DISL:DISL:1,2014-05-05T18:30:00Z,30.2513,-88.0778,2.169,7.98,1111122 
DISL,ioos:station:DISL:DISL:1,2014-05-05T19:00:00Z,30.2513,-88.0778,2.178,9.09,1111122 
DISL,ioos:station:DISL:DISL:1,2014-05-05T19:30:00Z,30.2513,-88.0778,2.176,9.5,1111122 
DISL,ioos:station:DISL:DISL:1,2014-05-05T20:00:00Z,30.2513,-88.0778,2.164,9.77,1111122 
DISL,ioos:station:DISL:DISL:1,2014-05-05T20:30:00Z,30.2513,-88.0778,2.172,10.03,1111122 
DISL,ioos:station:DISL:DISL:1,2014-05-05T21:00:00Z,30.2513,-88.0778,2.155,10.05,1111122 
DISL,ioos:station:DISL:DISL:1,2014-05-05T21:30:00Z,30.2513,-88.0778,2.151,10.16,1111122 
DISL,ioos:station:DISL:DISL:1,2014-05-05T22:00:00Z,30.2513,-88.0778,2.139,10.21,1111122 
DISL,ioos:station:DISL:DISL:1,2014-05-05T22:30:00Z,30.2513,-88.0778,2.121,9.92,1111122 
DISL,ioos:station:DISL:DISL:1,2014-05-05T23:00:00Z,30.2513,-88.0778,2.108,9.88,1111122 
DISL,ioos:station:DISL:DISL:1,2014-05-05T23:30:00Z,30.2513,-88.0778,2.098,9.71,1111122 
DISL,ioos:station:DISL:DISL:1,2014-05-06T00:00:00Z,30.2513,-88.0778,2.075,9.42,1111122 
DISL,ioos:station:DISL:DISL:1,2014-05-06T00:30:00Z,30.2513,-88.0778,2.055,9.13,1111122 
DISL,ioos:station:DISL:DISL:1,2014-05-06T01:00:00Z,30.2513,-88.0778,2.032,9.19,1111122 
DISL,ioos:station:DISL:DISL:1,2014-05-06T01:30:00Z,30.2513,-88.0778,2.015,8.98,1111122 
DISL,ioos:station:DISL:DISL:1,2014-05-06T02:00:00Z,30.2513,-88.0778,1.984,8.78,1111122 
DISL,ioos:station:DISL:DISL:1,2014-05-06T02:30:00Z,30.2513,-88.0778,1.971,8.13,1111122 
DISL,ioos:station:DISL:DISL:1,2014-05-06T03:00:00Z,30.2513,-88.0778,1.957,8.26,1111122 
DISL,ioos:station:DISL:DISL:1,2014-05-06T03:30:00Z,30.2513,-88.0778,1.947,8.27,1111122 
DISL,ioos:station:DISL:DISL:1,2014-05-06T04:00:00Z,30.2513,-88.0778,1.924,8.43,1111122 
DISL,ioos:station:DISL:DISL:1,2014-05-06T04:30:00Z,30.2513,-88.0778,1.932,8.55,1111122 
DISL,ioos:station:DISL:DISL:1,2014-05-06T05:00:00Z,30.2513,-88.0778,1.914,8.47,1111122 
DISL,ioos:station:DISL:DISL:1,2014-05-06T05:30:00Z,30.2513,-88.0778,1.907,8.29,1111122 
DISL,ioos:station:DISL:DISL:1,2014-05-06T06:00:00Z,30.2513,-88.0778,1.908,8.17,1111122 
DISL,ioos:station:DISL:DISL:1,2014-05-06T06:30:00Z,30.2513,-88.0778,1.91,7.58,1111122 
DISL,ioos:station:DISL:DISL:1,2014-05-06T07:00:00Z,30.2513,-88.0778,1.906,7.39,1111122 
DISL,ioos:station:DISL:DISL:1,2014-05-06T07:30:00Z,30.2513,-88.0778,1.918,7.66,1111122 
DISL,ioos:station:DISL:DISL:1,2014-05-06T08:00:00Z,30.2513,-88.0778,1.919,7.31,1111122 
DISL,ioos:station:DISL:DISL:1,2014-05-06T08:30:00Z,30.2513,-88.0778,1.948,6.54,1111122 
DISL,ioos:station:DISL:DISL:1,2014-05-06T09:00:00Z,30.2513,-88.0778,1.931,7.3,1111122 
DISL,ioos:station:DISL:DISL:1,2014-05-06T09:30:00Z,30.2513,-88.0778,1.955,6.72,1111122 
DISL,ioos:station:DISL:DISL:1,2014-05-06T10:00:00Z,30.2513,-88.0778,1.971,7.64,1111122 
DISL,ioos:station:DISL:DISL:1,2014-05-06T10:30:00Z,30.2513,-88.0778,1.991,8.03,1111122 
DISL,ioos:station:DISL:DISL:1,2014-05-06T11:00:00Z,30.2513,-88.0778,2.012,8.01,1111122 
DISL,ioos:station:DISL:DISL:1,2014-05-06T11:30:00Z,30.2513,-88.0778,2.025,7.81,1111122 
DISL,ioos:station:DISL:DISL:1,2014-05-06T12:00:00Z,30.2513,-88.0778,2.049,8.0,1111122 
DISL,ioos:station:DISL:DISL:1,2014-05-06T12:30:00Z,30.2513,-88.0778,2.061,7.89,1111122 
DISL,ioos:station:DISL:DISL:1,2014-05-06T13:00:00Z,30.2513,-88.0778,2.078,7.82,1111122 
DISL,ioos:station:DISL:DISL:1,2014-05-06T13:30:00Z,30.2513,-88.0778,2.093,7.82,1111122 
DISL,ioos:station:DISL:DISL:1,2014-05-06T14:00:00Z,30.2513,-88.0778,2.109,7.52,1111122 
DISL,ioos:station:DISL:DISL:1,2014-05-06T14:30:00Z,30.2513,-88.0778,2.118,7.68,1111122 
DISL,ioos:station:DISL:DISL:1,2014-05-06T15:00:00Z,30.2513,-88.0778,2.136,7.61,1111122 